Погода в Богословском

Россия / Тульская область     54°46′06″N   37°59′48″E
темп.,
°C
ветер,
м/с
пор.,
м/с
влажн.,
%
обл.,
%
осадки,
мм/ч
давл.,
гПа
погр.,
м
28 сентября, вт
вт2800:00+8ссв51092100 0.2 1023668
03:00+7св5993100 0.5 1024562
06:00+6св5988100 0.4 1026678
09:00+6св5892100 0.4 1028792
12:00+7всв5778100 0.1 1029886
15:00+7всв5676100 0.1 1031782
18:00+6всв477498 0.0 1033516
21:00+3ссв11825 0.0 103411
29 сентября, ср
ср2900:00+2с22885 0.0 103529
03:00+2с22925 0.0 103530
06:00+1с22925 0.0 103629
09:00+5с34765 0.0 1036259
12:00+10ссв345930 0.0 1035794
15:00+11с34535 0.0 10341103
18:00+8с227040 0.0 103420
21:00+6с227794 0.0 103415
30 сентября, чт
чт3000:00+6с1181100 0.0 103513
03:00+7ссз2277100 0.0 103525
06:00+7с2378100 0.0 103572
09:00+8ссв1372100 0.0 1035141
12:00+11ссв23626 0.0 1035833
15:00+12св225576 0.0 10351299
18:00+9ссв11680 0.0 103410
21:00+7ссз11760 0.0 103510
1 октября, пт
пт100:00+6сз11824 0.0 103610
03:00+5зсз11865 0.0 103610
06:00+5зсз11895 0.0 103610
09:00+8зсз22765 0.0 1036188
12:00+12з22605 0.0 1036710
15:00+13з23545 0.0 1035962
18:00+10з22695 0.0 103411
21:00+8зюз22755 0.0 103515
2 октября, сб
сб200:00+7зюз22795 0.0 103514
03:00+6зюз22835 0.0 103515
06:00+5зюз22865 0.0 103514
09:00+9зюз23725 0.0 1035187
12:00+13зюз23575 0.0 1034698
15:00+14зюз23525 0.0 1033961
18:00+11юз11685 0.0 103310
21:00+9ююз227412 0.0 103411